Weather History for Fredericksburg, TX

Change the Weather History Date:

Thursday, February 13, 2014

  Actual Average (KSAT) Record (KSAT)
Temperature  
Mean Temperature 46 °F 55 °F  
Max Temperature 67 °F 67 °F 86 °F (2000)
Min Temperature 26 °F 44 °F 6 °F (1899)
Degree Days  
Heating Degree Days 18 10  
Month to date heating degree days 149  
Since 1 July heating degree days 1167  
Cooling Degree Days 0 1  
Month to date cooling degree days 9  
Year to date cooling degree days 16  
Moisture  
Dew Point 30 °F    
Average Humidity 61    
Maximum Humidity 92    
Minimum Humidity 27    
Precipitation  
Precipitation 0.00 in 0.07 in 1.58 in (1969)
Month to date precipitation 0.83  
Year to date precipitation 2.59  
Snow  
Snow 0.00 in - - ()
Month to date snowfall  
Since 1 July snowfall  
Snow Depth -    
Sea Level Pressure  
Sea Level Pressure 29.98 in    
Wind  
Wind Speed 5 mph (SW)    
Max Wind Speed 16 mph    
Max Gust Speed 22 mph    
Visibility 10 miles    
Events      
T = Trace of Precipitation, MM = Missing Value Source: NWS Daily Summary

Daily Weather History Graph

Daily Weather History Graph

Search for Another Location

Airport:

Trip Planner

Search our weather history database for the weather conditions in past years. The results will help you decide how hot, cold, wet, or windy it might be!

Date:

Astronomy

Feb. 13, 2014 Rise Set
Actual Time 7:17 AM CST 6:22 PM CST
Civil Twilight 6:52 AM CST 6:47 PM CST
Nautical Twilight 6:24 AM CST 7:15 PM CST
Astronomical Twilight 5:56 AM CST 7:43 PM CST
Moon 5:32 PM CST (2/13) 6:10 AM CST (2/13)
Length of Visible Light 11h 54m
Length of Day
11h 05m
Waxing Gibbous, 99% of the Moon is Illuminated
Feb 13
Waxing Gibbous
Feb 14
Full
Feb 22
Last Quarter
Mar 1
New
Mar 8
First Quarter

Hourly Weather History & Observations

Time (CST) Temp. Windchill Dew Point Humidity Pressure Visibility Wind Dir Wind Speed Gust Speed Precip Events Conditions
12:15 AM 30.2 °F 25.4 °F 26.8 °F 87% 30.06 in 10.0 mi West 4.6 mph - N/A   Clear
12:35 AM 29.3 °F - 26.1 °F 88% 30.06 in 10.0 mi Calm Calm - N/A   Clear
12:55 AM 28.8 °F 25.0 °F 25.7 °F 88% 30.06 in 10.0 mi NW 3.5 mph - N/A   Clear
1:15 AM 27.1 °F 23.2 °F 24.6 °F 90% 30.05 in 10.0 mi WNW 3.5 mph - N/A   Clear
1:35 AM 28.2 °F 24.4 °F 25.5 °F 90% 30.06 in 10.0 mi West 3.5 mph - N/A   Clear
1:55 AM 26.2 °F - 23.4 °F 89% 30.05 in 10.0 mi Calm Calm - N/A   Clear
2:15 AM 27.7 °F 21.3 °F 25.0 °F 90% 30.06 in 10.0 mi WSW 5.8 mph - N/A   Clear
2:35 AM 27.1 °F 23.2 °F 24.1 °F 88% 30.05 in 10.0 mi NNW 3.5 mph - N/A   Clear
2:55 AM 27.5 °F - 25.0 °F 90% 30.05 in 10.0 mi Calm Calm - N/A   Clear
3:15 AM 26.4 °F 20.9 °F 24.4 °F 92% 30.04 in 10.0 mi NW 4.6 mph - N/A   Clear
3:35 AM 26.8 °F 22.8 °F 24.6 °F 92% 30.04 in 10.0 mi NW 3.5 mph - N/A   Clear
3:55 AM 26.6 °F - 24.4 °F 92% 30.03 in 10.0 mi Calm Calm - N/A   Clear
4:15 AM 27.3 °F 23.4 °F 25.0 °F 91% 30.03 in 10.0 mi WSW 3.5 mph - N/A   Clear
4:35 AM 26.6 °F 21.2 °F 24.1 °F 90% 30.02 in 10.0 mi West 4.6 mph - N/A   Clear
4:55 AM 27.0 °F 23.0 °F 23.9 °F 88% 30.02 in 10.0 mi West 3.5 mph - N/A   Clear
5:15 AM 27.7 °F - 24.6 °F 88% 30.01 in 10.0 mi Calm Calm - N/A   Clear
5:35 AM 27.3 °F 23.4 °F 24.4 °F 89% 30.01 in 10.0 mi NNW 3.5 mph - N/A   Clear
5:55 AM 27.0 °F 23.0 °F 24.8 °F 92% 30.01 in 10.0 mi WNW 3.5 mph - N/A   Clear
6:15 AM 29.1 °F 25.4 °F 26.8 °F 91% 30.02 in 10.0 mi NW 3.5 mph - N/A   Clear
6:35 AM 31.6 °F - 28.2 °F 87% 30.02 in 10.0 mi Calm Calm - N/A   Clear
6:55 AM 29.7 °F - 27.0 °F 90% 30.02 in 10.0 mi Calm Calm - N/A   Clear
7:15 AM 30.4 °F 25.6 °F 27.5 °F 89% 30.02 in 10.0 mi WSW 4.6 mph - N/A   Clear
7:35 AM 28.2 °F - 25.5 °F 90% 30.03 in 10.0 mi Calm Calm - N/A   Clear
7:55 AM 33.3 °F - 29.8 °F 87% 30.02 in 10.0 mi Calm Calm - N/A   Clear
8:15 AM 35.1 °F - 31.1 °F 85% 30.03 in 10.0 mi Calm Calm - N/A   Clear
8:35 AM 38.1 °F 33.7 °F 32.0 °F 79% 30.03 in 10.0 mi WSW 5.8 mph - N/A   Clear
8:55 AM 41.4 °F 36.2 °F 32.4 °F 70% 30.04 in 10.0 mi SW 8.1 mph - N/A   Clear
9:15 AM 45.3 °F 39.7 °F 32.5 °F 61% 30.03 in 10.0 mi SW 11.5 mph 17.3 mph N/A   Clear
9:35 AM 47.5 °F - 32.7 °F 57% 30.04 in 10.0 mi SW 11.5 mph 18.4 mph N/A   Clear
9:55 AM 49.1 °F - 32.4 °F 53% 30.04 in 10.0 mi SW 16.1 mph - N/A   Clear
10:15 AM 50.2 °F - 32.9 °F 52% 30.04 in 10.0 mi SW 11.5 mph - N/A   Clear
10:35 AM 51.8 °F - 33.4 °F 50% 30.04 in 10.0 mi South 9.2 mph - N/A   Clear
10:55 AM 53.4 °F - 33.3 °F 46% 30.04 in 10.0 mi South 12.7 mph 17.3 mph N/A   Clear
11:15 AM 55.6 °F - 33.6 °F 44% 30.03 in 10.0 mi SSW 12.7 mph - N/A   Clear
11:35 AM 56.7 °F - 33.3 °F 41% 30.02 in 10.0 mi SW 15.0 mph 19.6 mph N/A   Clear
11:55 AM 57.7 °F - 33.4 °F 40% 30.00 in 10.0 mi SSW 15.0 mph 19.6 mph N/A   Clear
12:15 PM 59.0 °F - 33.4 °F 38% 29.99 in 10.0 mi South 15.0 mph - N/A   Clear
12:35 PM 60.1 °F - 33.1 °F 36% 29.99 in 10.0 mi South 13.8 mph 17.3 mph N/A   Clear
12:55 PM 61.7 °F - 33.4 °F 35% 29.97 in 10.0 mi SSW 13.8 mph - N/A   Clear
1:35 PM 63.7 °F - 32.9 °F 32% 29.95 in 10.0 mi SSW 10.4 mph 21.9 mph N/A   Clear
1:55 PM 64.2 °F - 32.5 °F 31% 29.94 in 10.0 mi SSW 15.0 mph 19.6 mph N/A   Clear
2:15 PM 65.3 °F - 32.5 °F 29% 29.93 in 10.0 mi SSW 13.8 mph 19.6 mph N/A   Clear
2:35 PM 66.0 °F - 32.5 °F 29% 29.92 in 10.0 mi SSW 11.5 mph 16.1 mph N/A   Clear
2:55 PM 66.4 °F - 32.5 °F 28% 29.92 in 10.0 mi SW 10.4 mph 17.3 mph N/A   Clear
3:15 PM 66.9 °F - 32.2 °F 27% 29.91 in 10.0 mi SSW 12.7 mph 16.1 mph N/A   Clear
3:35 PM 67.1 °F - 32.4 °F 28% 29.91 in 10.0 mi SSW 13.8 mph 17.3 mph N/A   Clear
3:55 PM 67.1 °F - 32.2 °F 27% 29.90 in 10.0 mi SSW 11.5 mph 17.3 mph N/A   Clear
4:15 PM 67.8 °F - 32.4 °F 27% 29.90 in 10.0 mi SSW 10.4 mph 18.4 mph N/A   Clear
4:35 PM 67.1 °F - 32.0 °F 27% 29.90 in 10.0 mi SSW 11.5 mph - N/A   Clear
4:55 PM 67.1 °F - 32.0 °F 27% 29.91 in 10.0 mi SSW 9.2 mph - N/A   Clear
5:15 PM 66.2 °F - 32.0 °F 28% 29.91 in 10.0 mi SSW 9.2 mph - N/A   Clear
5:35 PM 65.5 °F - 32.0 °F 29% 29.90 in 10.0 mi South 9.2 mph - N/A   Clear
5:55 PM 64.4 °F - 32.0 °F 30% 29.90 in 10.0 mi South 8.1 mph - N/A   Clear
6:15 PM 62.6 °F - 31.8 °F 32% 29.90 in 10.0 mi South 6.9 mph - N/A   Clear
6:35 PM 59.7 °F - 32.0 °F 35% 29.91 in 10.0 mi South 6.9 mph - N/A   Clear
6:55 PM 58.5 °F - 31.8 °F 37% 29.91 in 10.0 mi SSW 5.8 mph - N/A   Clear
7:35 PM 55.6 °F - 32.0 °F 41% 29.92 in 10.0 mi Calm Calm - N/A   Clear
7:55 PM 54.1 °F - 32.0 °F 43% 29.92 in 10.0 mi SSW 4.6 mph - N/A   Clear
8:35 PM 50.2 °F - 31.8 °F 49% 29.93 in 10.0 mi SW 4.6 mph - N/A   Clear
8:55 PM 48.9 °F - 32.0 °F 52% 29.93 in 10.0 mi Calm Calm - N/A   Clear
9:15 PM 43.0 °F - 31.1 °F 63% 29.94 in 10.0 mi Calm Calm - N/A   Clear
9:35 PM 45.5 °F - 32.0 °F 59% 29.93 in 10.0 mi Calm Calm - N/A   Clear
9:55 PM 46.2 °F - 32.0 °F 58% 29.94 in 10.0 mi Calm Calm - N/A   Clear
10:15 PM 43.0 °F 41.3 °F 32.0 °F 65% 29.95 in 10.0 mi NNW 3.5 mph - N/A   Clear
10:35 PM 43.5 °F - 32.0 °F 64% 29.94 in 10.0 mi Calm Calm - N/A   Clear
10:55 PM 42.4 °F - 31.6 °F 66% 29.93 in 10.0 mi Calm Calm - N/A   Clear
11:15 PM 39.2 °F - 31.1 °F 73% 29.93 in 10.0 mi Calm Calm - N/A   Clear
11:35 PM 39.0 °F - 30.9 °F 73% 29.93 in 10.0 mi Calm Calm - N/A   Clear
11:55 PM 38.5 °F - 30.9 °F 74% 29.94 in 10.0 mi Calm Calm - N/A   Clear